星链-32821 (STARLINK-32821)

导读 | 星芒AI

STARLINK-32821 是 SpaceX 星链计划中的一颗低轨通信卫星,属于第 6 批星链卫星群。该卫星于 2023 年发射,旨在为全球用户提供高速互联网服务。它运行在约 550 公里的轨道高度,采用先进的通信技术,支持宽带数据传输。星链系统由数千颗卫星组成,目标是构建覆盖全球的卫星互联网网络,尤其服务于偏远地区。STARLINK-32821 在提升全球网络连接能力方面发挥着重要作用。

基本信息
目录编号:
63078
目录名称:
STARLINK-32821
国际标识:
2025-037B
轨道中心:
EARTH
卫星名称:
星链-32821
卫星全名:
星链-32821 (STARLINK-32821)
卫星状态:
在轨 (已飞行257 天)
发射日期:
2025-02-23 UTC
国别 :
美国 (US)
星等 :
--
轨道信息
数据来源 国际轨道数据
星历时间: 2025-11-07T14:38:42+0800
11小时前
查看轨道信息
半长轴: 6950.162km
偏心率: 0.0002797
轨道倾角: 70.001°
近地点辐角 269.239°
升交点赤经 303.186°
平近点角 90.844°
近地点: 570.083km
远地点: 573.971km
周期: 96.106分钟
每日圈数: 14.983402
详细信息
固有亮度:
5
最大亮度:
2.5
卫星平台:
Starlink V1.0
覆盖范围:
全球
运营商:
太空探索技术公司
运营商所在国:
美国
制造商(研发单位):
太空探索技术公司
制造商所在国:
美国
使用方式:
暂无
卫星简介
Starlink 计划是 SpaceX 推出的全球卫星互联网项目,通过发射低轨道卫星,为全球尤其是偏远地区提供高速、低延迟的互联网服务。自 2019 年起,Starlink 已部署数千颗卫星,旨在缩小全球数字鸿沟,推动互联网普及。该项目还为军事、航空等行业提供通信支持,带来广泛经济效益。
2D轨道图
3D轨道图
轨道高度分析图
轨道倾角分析图
轨道综合分析图
查看轨道综合分析图